Wind_Speed
10 9 10 10 11 10 9 9 8 9 9 9 8 8 9 10 10 10 10 10 11 12 13 14 14 15 15 15 16 16 17 18 19 20 20 19 18 18 18 19 19 20 21 22 22 21 21 20 20 19 19 19 18 18 17 16 15 15 15 15 15 15 15 16 16 16 16 15 15 15 14 14 14 14 14 14 14 14 14 15 15 15 16 16 16
9 9 10 11 11 10 10 10 10 10 10 10 10 10 9 9 9 9 9 9 10 11 12 13 13 14 15 16 16 17 18 18 19 20 20 19 19 19 19 19 20 20 21 22 22 22 22 22 21 21 20 20 19 19 18 17 16 16 16 16 17 17 18 18 18 18 18 18 18 17 17 16 16 15 15 15 15 15 14 14 14 15 15 16 16
10 10 10 10 10 10 10 11 11 11 11 11 10 10 9 8 8 8 8 7 8 10 11 12 12 13 14 15 16 16 18 18 18 18 18 18 19 20 20 20 20 20 20 21 22 22 23 23 23 22 21 21 20 20 19 18 18 18 18 18 19 20 20 20 21 21 21 21 20 20 20 19 19 18 17 17 16 16 16 15 15 15 15 15 16
10 10 10 11 11 10 10 10 10 10 10 10 10 10 9 8 7 7 7 7 8 9 10 11 11 12 13 14 14 15 16 17 16 17 17 17 18 19 19 20 20 20 21 21 21 22 22 22 23 23 22 22 21 20 20 19 19 19 19 20 21 22 22 22 22 22 22 22 22 22 21 21 21 20 19 18 17 17 17 16 16 16 16 16 16
10 10 11 11 10 9 9 8 9 9 9 10 10 10 9 8 7 6 6 6 7 8 9 11 11 12 12 12 12 13 14 15 15 16 16 16 16 17 18 19 19 20 20 20 21 21 21 21 22 22 22 22 22 21 21 20 20 20 21 21 22 23 23 23 23 23 23 23 23 22 22 22 22 21 21 20 19 18 17 17 17 17 17 17 17
10 10 11 10 10 9 9 8 8 9 10 10 10 9 8 7 7 6 5 6 7 8 9 10 11 11 11 11 11 11 12 13 14 15 15 15 16 16 17 17 18 18 19 20 20 20 20 20 20 21 21 21 21 21 21 21 21 21 21 22 23 23 23 23 23 23 23 23 23 23 23 23 22 22 22 21 20 19 19 18 17 17 17 17 17
11 11 11 11 10 9 9 9 9 10 10 10 9 8 7 6 6 5 5 6 7 8 9 10 11 11 11 11 11 11 12 12 13 14 14 14 14 14 15 15 16 17 17 17 18 18 18 18 19 19 19 19 19 20 20 20 20 21 22 22 23 23 23 23 23 23 23 23 22 22 22 22 22 22 22 22 22 21 20 19 19 18 17 17 17
11 11 12 11 10 10 9 9 9 10 10 9 8 7 6 5 4 4 5 6 7 8 9 10 10 10 10 10 10 10 11 12 12 13 13 12 12 12 12 13 14 14 15 15 15 15 16 16 17 17 17 17 17 18 18 18 19 20 20 21 21 22 22 22 22 22 21 21 21 21 21 21 21 22 22 22 22 21 21 20 18 18 17 18 18
12 12 13 12 11 10 10 10 10 10 9 9 8 7 5 4 4 4 5 7 8 9 9 9 9 9 9 9 9 10 10 11 11 12 12 11 10 10 10 12 12 12 12 11 11 11 13 13 13 14 14 14 15 15 16 16 16 17 18 18 19 19 20 20 19 19 18 18 19 19 19 20 20 21 21 21 21 20 19 18 17 17 17 18 18
13 13 13 12 11 11 11 11 10 10 9 9 8 7 5 5 4 5 6 7 8 8 8 8 8 9 9 9 9 10 10 9 9 9 9 8 8 8 9 10 10 9 9 10 9 10 10 10 10 11 11 12 12 13 13 13 14 14 15 15 16 16 16 16 16 16 16 16 17 17 18 18 19 19 20 20 19 19 17 17 16 16 16 16 16
14 14 13 12 11 11 11 11 10 9 9 10 9 8 7 6 6 6 7 8 8 8 8 8 8 9 9 9 9 11 10 7 7 7 7 8 8 8 7 7 7 6 7 8 7 7 7 7 8 8 10 10 11 11 12 12 13 13 13 13 13 13 14 15 15 15 15 16 17 17 16 17 17 17 18 18 17 16 16 15 14 14 13 13 14
15 15 14 13 12 12 11 10 10 9 9 10 10 9 8 7 7 8 8 9 9 9 8 7 8 8 8 8 9 10 9 5 6 6 6 7 6 5 4 4 5 5 5 6 6 6 8 8 9 9 10 10 10 11 12 12 13 13 13 13 13 12 13 14 14 14 14 15 15 15 15 14 14 14 14 14 14 14 13 13 13 12 12 12 12
15 15 15 14 13 12 12 11 11 10 10 10 10 9 8 8 9 9 9 10 10 10 8 7 8 8 7 7 8 9 8 5 4 4 4 4 3 3 2 2 4 5 6 7 7 8 9 9 9 9 9 9 10 11 12 12 12 12 12 12 12 12 12 12 12 12 12 13 13 13 13 12 12 12 12 12 12 13 12 12 13 13 13 13 12
16 16 16 15 14 13 13 12 12 11 11 11 11 10 10 10 10 10 11 11 11 11 9 7 7 7 7 7 7 8 7 5 3 3 3 2 2 3 3 2 3 4 5 6 6 7 7 7 7 8 9 9 9 10 10 10 10 10 10 10 10 10 10 10 10 10 11 11 11 11 11 11 11 12 12 13 13 13 13 13 14 14 15 15 15
17 17 16 15 14 14 14 13 13 12 12 12 12 12 11 11 11 11 11 12 11 11 10 8 7 6 6 7 7 7 7 5 3 3 3 3 3 3 3 4 4 4 4 4 5 6 6 6 6 6 7 8 8 8 8 8 8 8 8 8 8 9 9 9 9 9 10 10 10 10 11 11 12 13 14 14 14 14 15 15 15 16 17 17 17
17 17 16 15 15 15 15 15 14 14 13 13 13 13 13 12 12 11 11 12 12 11 10 8 7 6 6 6 7 6 6 6 6 5 4 3 3 2 3 4 3 4 4 5 6 7 7 6 7 7 7 7 8 8 8 7 7 7 7 7 8 8 9 9 10 10 10 11 11 12 12 13 14 15 15 16 16 16 16 16 16 17 17 18 18
18 17 17 16 16 15 16 16 15 15 15 14 14 13 14 13 12 12 12 12 12 11 10 8 7 6 6 6 7 6 5 6 7 6 4 3 3 4 4 4 3 4 5 6 6 7 7 7 7 8 8 8 8 8 7 7 7 8 8 8 9 9 9 10 11 11 11 12 12 13 13 14 15 15 16 16 17 17 17 17 17 17 18 18 18
18 17 17 16 16 16 16 16 16 16 16 15 15 14 14 14 12 12 12 11 12 11 10 8 7 6 6 7 7 6 5 6 7 7 6 5 5 5 5 4 4 5 6 6 7 7 8 8 8 9 9 8 8 8 8 8 9 10 10 10 10 10 11 11 12 13 13 13 13 13 14 14 14 15 15 16 17 17 17 17 17 18 18 18 18
18 17 17 17 17 17 17 17 17 17 17 16 16 15 15 14 12 12 11 11 11 10 9 9 7 7 7 7 7 6 6 6 6 7 7 6 6 6 6 6 6 7 7 7 7 8 8 8 9 9 10 9 9 9 10 10 11 12 12 12 12 12 12 12 13 13 14 14 14 14 14 14 14 15 15 16 16 16 17 17 17 16 16 16 17
17 17 17 17 18 18 18 18 18 18 18 17 17 16 15 14 13 12 12 11 11 11 10 10 9 8 7 8 7 7 7 7 7 7 7 7 7 7 7 7 7 8 8 8 8 8 8 8 10 10 11 11 11 11 11 12 12 12 12 12 12 12 13 13 13 13 14 14 14 14 14 14 14 14 14 14 14 14 14 14 14 14 13 13 14
18 18 18 18 18 19 19 19 19 19 19 18 17 16 14 14 13 12 12 12 12 12 12 11 11 10 9 9 9 8 8 8 8 8 7 8 8 8 8 8 9 9 9 9 9 10 10 10 11 11 12 12 12 12 12 13 13 13 13 13 13 13 14 14 14 14 14 14 13 13 13 13 13 13 12 12 12 12 11 11 11 11 11 11 11
20 19 19 19 19 19 19 19 19 19 19 18 17 15 14 13 13 12 12 12 12 12 12 13 13 12 12 12 11 11 10 9 9 9 9 9 9 9 10 10 10 10 10 11 11 10 10 11 11 11 12 12 12 13 13 14 14 14 13 13 14 14 15 15 15 15 14 14 14 13 13 12 12 11 10 10 10 9 9 9 9 9 10 10 10
21 21 20 19 19 19 19 19 19 19 19 17 16 15 15 14 13 13 12 12 13 13 13 14 14 14 14 13 14 14 13 12 11 10 10 12 11 11 11 11 11 11 11 12 11 11 11 11 11 12 12 13 13 14 14 15 15 14 14 14 14 15 15 15 15 15 14 14 14 13 12 12 11 10 9 9 9 9 9 9 9 10 10 10 10
22 21 20 19 19 19 19 19 19 20 19 17 16 16 15 15 14 14 14 14 14 14 15 15 15 15 14 14 16 15 14 14 14 12 11 12 12 12 12 13 13 13 13 13 12 12 12 12 12 13 13 13 14 14 14 14 14 14 14 14 14 15 15 14 14 14 14 13 13 13 12 11 11 10 10 10 10 10 10 11 11 11 11 11 12
22 21 20 19 19 19 19 19 20 20 19 17 17 16 16 15 15 14 14 14 14 15 16 16 15 15 14 14 16 16 14 13 15 14 13 12 13 14 14 15 15 15 15 15 14 14 13 13 13 13 13 14 14 14 14 13 13 13 13 13 13 13 13 13 13 13 13 13 13 12 12 11 11 11 11 11 12 12 12 12 12 12 12 12 12
21 20 20 19 19 19 20 21 20 20 19 18 17 16 16 15 15 14 14 13 14 14 15 15 15 15 14 13 15 16 15 15 15 15 14 13 14 15 16 16 16 16 16 16 16 15 15 15 14 14 15 14 14 14 14 14 13 13 13 13 13 12 12 12 12 12 12 12 12 12 11 11 11 12 12 12 12 12 12 12 12 12 12 12 12
21 20 20 19 19 20 21 21 20 20 19 18 17 17 15 14 14 13 12 12 12 12 13 14 13 13 12 12 13 14 14 14 14 14 14 13 14 15 16 16 16 16 16 15 16 15 15 15 15 15 15 15 15 15 14 13 13 12 12 12 12 12 12 12 12 12 12 11 11 11 12 12 12 12 12 12 12 12 12 12 12 12 12 12 11
21 19 19 19 19 20 20 20 20 19 19 18 18 17 16 14 13 12 11 11 11 11 11 11 12 11 11 11 11 12 12 12 12 12 12 13 13 15 15 14 14 14 14 14 14 14 14 14 14 14 14 14 14 13 12 12 12 11 11 11 11 11 11 11 11 11 11 11 11 12 12 12 12 12 12 12 12 12 12 12 12 12 12 12 12
20 19 19 18 18 18 18 18 19 19 19 18 18 17 16 15 13 11 10 11 11 10 10 11 11 11 11 11 11 11 11 11 11 11 11 11 12 13 13 13 13 13 13 13 13 13 13 13 13 13 13 13 12 11 10 10 10 11 11 11 11 11 11 11 12 12 12 12 12 12 12 12 13 12 12 12 12 12 12 12 12 13 13 13 14
20 19 18 17 17 17 17 17 18 19 19 18 18 17 16 15 14 12 10 10 10 10 10 10 10 11 11 11 11 10 10 10 10 11 11 11 11 13 13 13 13 13 13 13 13 12 12 12 12 12 12 11 11 10 10 10 11 11 12 12 12 12 12 13 13 13 14 14 13 13 13 13 13 12 12 12 12 12 12 13 13 14 15 15 16
20 19 17 17 17 16 16 16 18 19 19 19 18 16 15 16 15 13 11 10 10 9 9 9 9 10 10 10 10 9 9 9 10 11 11 11 11 12 13 13 14 14 14 14 13 12 12 13 12 12 12 12 12 11 11 12 12 13 13 14 14 13 13 14 14 14 14 14 13 13 13 13 13 13 13 13 13 13 13 14 14 15 15 16 17
18 18 16 15 15 15 16 16 18 19 18 18 17 16 15 15 15 14 12 12 11 10 9 9 9 9 9 9 9 9 9 9 10 11 12 12 12 13 13 14 14 14 15 15 14 14 14 14 14 14 14 14 14 14 14 14 14 14 15 15 15 15 14 15 14 14 14 14 14 14 14 13 13 13 14 14 14 14 14 15 15 16 16 17 18
17 16 16 15 15 15 16 17 18 19 18 18 17 16 15 15 15 14 14 13 13 12 11 10 10 10 9 10 10 11 11 11 12 13 13 14 14 14 14 15 15 15 15 15 15 16 16 16 16 16 16 16 16 16 15 15 15 15 15 15 15 15 15 15 15 15 15 15 15 15 15 15 15 15 15 15 16 16 16 16 17 17 18 18 19
16 16 16 16 15 15 16 17 19 19 19 18 17 16 15 15 15 15 15 15 15 14 14 13 12 12 12 12 12 13 14 15 15 15 15 16 16 16 16 16 15 16 16 16 17 17 17 18 18 19 19 18 18 18 17 17 16 16 15 15 15 15 15 15 15 15 16 16 16 16 16 16 17 17 17 17 17 17 17 18 18 18 19 19 20
16 17 18 18 18 17 18 19 20 20 20 19 18 17 17 16 16 16 16 16 16 16 16 15 14 14 14 14 15 16 17 17 17 17 17 18 18 18 17 17 16 16 17 17 17 17 18 19 20 20 20 20 19 19 18 17 17 16 16 16 16 16 16 16 17 17 17 17 17 17 18 18 18 18 18 18 18 18 18 19 19 20 20 21 21
16 17 17 18 18 18 18 19 19 20 20 19 18 18 18 18 18 18 18 18 18 18 17 17 17 16 16 17 17 18 19 19 19 19 19 19 20 20 19 19 18 17 17 17 18 18 19 20 20 20 21 20 20 19 19 18 17 17 18 18 18 18 18 19 19 20 19 19 19 19 19 19 19 19 19 19 19 19 20 20 21 22 23 23 24
16 17 17 17 17 16 16 17 17 17 18 18 18 18 19 19 19 19 20 20 20 20 19 19 18 18 19 19 20 20 20 20 20 20 20 20 21 21 21 20 19 19 18 18 19 19 20 21 21 21 21 21 21 21 20 20 21 21 22 22 22 22 22 22 22 22 21 21 21 20 20 20 20 20 20 20 21 21 23 24 25 26 27 27 27
18 18 18 17 16 15 15 15 15 16 17 18 18 19 20 20 21 21 21 21 22 22 22 21 21 20 21 21 21 21 21 21 22 21 21 22 23 23 22 22 21 20 19 19 20 20 21 21 22 22 22 22 22 23 23 23 24 25 25 26 26 26 26 25 25 24 23 22 21 21 21 21 21 22 22 22 23 24 26 28 30 31 32 32 32
19 20 20 19 18 17 16 16 16 17 19 20 21 21 21 22 23 23 23 23 23 23 23 23 23 22 22 22 22 22 22 22 22 22 22 23 24 24 24 23 22 21 20 21 21 22 22 22 23 23 23 23 24 25 26 27 28 29 29 29 30 30 29 28 27 26 24 23 22 22 22 23 23 23 24 25 25 26 27 29 32 33 35 35 34
22 22 23 22 21 19 19 18 18 19 20 22 23 23 23 24 24 25 25 24 24 23 23 23 23 23 22 22 22 22 22 22 22 23 24 24 25 25 25 24 23 22 22 22 22 22 22 23 24 25 26 27 28 29 31 31 32 32 32 32 32 31 31 29 28 27 26 25 24 25 25 25 26 26 27 28 29 30 30 32 33 33 34 35 35
23 24 25 25 24 23 21 21 20 20 21 21 22 23 23 24 25 25 25 25 24 23 23 23 23 23 22 22 22 23 23 23 23 24 25 25 26 26 26 25 24 23 23 23 23 23 24 26 27 29 30 31 32 32 33 33 33 33 32 32 32 31 30 29 28 28 28 29 29 30 30 31 31 32 32 32 33 34 33 34 35 34 33 33 34
23 24 25 25 24 24 24 24 23 22 23 22 22 22 23 23 24 24 24 24 24 24 24 24 25 24 24 24 24 25 25 25 26 26 26 27 27 27 27 26 25 25 25 25 25 26 27 29 30 31 32 32 33 33 33 32 32 32 31 31 32 31 31 31 30 30 31 33 34 35 35 36 36 36 35 35 36 35 35 36 35 34 33 33 33
23 23 23 23 23 23 24 25 25 24 24 23 22 21 21 22 24 24 24 24 25 25 26 26 27 27 27 26 27 27 27 28 28 28 28 28 28 28 28 28 28 28 28 29 29 30 30 31 32 32 33 33 33 34 34 33 33 33 33 33 34 34 34 34 34 34 34 36 38 38 37 38 39 38 37 36 36 36 36 37 36 34 34 34 35
24 24 25 25 24 23 23 24 25 26 25 24 22 21 21 22 24 25 25 25 26 27 27 28 28 28 29 29 30 30 31 31 31 31 31 31 31 31 31 31 31 32 32 33 33 32 33 33 34 34 34 35 35 35 35 36 36 36 36 36 36 37 37 38 39 39 37 37 39 40 39 38 39 40 39 37 37 37 38 38 37 37 37 38 38
25 26 26 25 24 23 21 21 23 25 26 24 22 21 21 23 24 26 27 27 27 28 28 28 28 29 30 31 32 33 34 34 34 34 34 34 34 34 34 34 34 35 35 36 35 35 35 36 36 36 36 36 37 37 37 38 39 39 39 39 38 38 39 40 41 42 40 39 40 42 42 41 41 42 42 40 40 41 41 40 39 39 40 41 43
24 23 23 22 22 21 21 20 21 24 26 26 23 22 22 23 25 26 28 28 28 28 28 28 28 29 30 31 33 34 35 36 36 37 37 37 37 36 36 37 37 38 38 39 38 38 39 39 39 39 39 38 38 39 40 41 41 42 42 42 41 41 41 41 41 43 42 41 42 43 44 44 42 43 45 45 45 45 44 42 41 41 42 44 45
23 23 22 22 22 21 20 20 21 24 26 27 25 24 23 23 24 26 28 29 29 29 29 29 30 31 31 32 33 34 35 36 37 38 39 39 39 39 39 40 40 40 41 42 41 41 41 42 42 42 42 42 41 42 43 43 44 44 45 45 45 45 44 44 44 44 44 44 44 45 47 46 45 46 49 50 50 49 46 43 43 45 47 47 47
23 23 23 23 23 22 21 20 21 23 26 27 27 26 25 24 25 27 28 30 30 31 31 32 33 34 34 35 35 36 37 38 39 40 40 40 41 41 42 42 43 43 44 44 44 43 43 44 44 44 44 45 45 45 46 46 47 47 47 48 48 48 49 48 47 48 48 48 49 50 52 52 51 52 54 53 50 48 48 48 48 50 50 50 50
24 25 25 25 24 24 23 23 23 24 26 28 29 28 28 28 28 29 30 32 33 34 35 35 36 37 37 37 38 38 39 40 40 41 42 42 43 44 44 44 45 45 46 46 45 46 46 46 47 47 47 48 49 49 49 49 50 50 50 50 50 51 52 51 51 52 51 51 52 53 55 56 55 55 57 57 54 53 54 56 56 55 53 53 53
26 27 27 27 27 27 26 26 27 27 28 30 31 31 32 32 32 33 34 35 36 37 38 39 39 39 39 40 40 40 40 40 41 42 43 44 45 45 46 46 47 47 48 48 48 49 50 50 51 51 51 52 52 52 52 53 53 53 53 53 53 54 54 55 55 56 55 53 53 55 57 57 57 58 59 60 60 60 60 61 60 58 55 55 56
29 30 30 30 30 29 29 29 30 30 31 33 34 35 35 36 36 36 37 38 39 40 40 41 41 42 42 42 43 44 44 44 44 45 45 46 47 48 48 49 50 50 51 52 52 52 53 54 54 55 55 56 56 56 56 56 57 57 57 57 58 58 58 58 59 59 59 57 56 58 59 59 59 60 60 61 62 62 61 60 60 59 57 57 58
Wind_Direction
271 272 276 279 278 273 271 271 271 269 264 261 259 250 243 247 252 256 256 253 252 256 259 260 261 263 266 268 270 269 268 266 264 262 262 262 260 256 253 252 251 250 249 250 251 253 254 255 256 257 260 263 267 271 274 276 279 281 282 283 283 282 282 281 281 281 280 280 279 279 278 278 277 277 277 277 278 278 277 277 276 274 272 271 270
269 274 279 278 274 273 274 276 273 268 265 264 263 260 254 251 250 251 251 250 252 255 257 259 261 263 264 265 267 266 265 263 260 258 259 260 260 257 254 252 252 252 251 252 252 253 254 255 255 256 258 260 264 268 271 274 276 279 281 282 283 283 283 283 283 284 284 285 285 285 285 284 284 283 283 283 282 282 281 280 279 278 275 273 271
268 274 273 267 267 271 273 273 272 269 270 271 269 264 259 253 248 246 249 253 256 258 259 259 259 260 260 260 260 260 261 260 258 257 257 259 260 258 256 254 254 253 253 253 253 253 254 255 255 256 258 260 262 265 268 272 275 278 281 282 283 283 284 284 285 286 286 287 287 288 289 289 290 289 289 289 289 288 286 284 283 281 279 277 275
266 264 258 259 264 267 267 265 266 269 271 272 271 267 264 261 256 253 255 258 258 260 260 259 259 259 260 260 258 258 260 262 261 257 256 257 259 261 259 257 256 255 255 255 254 254 255 256 257 257 258 260 261 264 267 270 274 277 280 281 282 283 283 285 286 287 288 289 289 290 291 292 293 293 293 292 291 290 288 286 285 284 283 281 278
255 250 252 257 259 257 257 259 263 268 269 269 270 270 270 269 267 265 264 262 259 259 259 259 261 263 265 267 266 264 263 263 262 259 259 260 262 264 262 259 257 256 257 257 258 257 257 257 258 258 259 260 261 263 266 269 273 275 277 279 280 282 283 284 286 287 289 290 291 292 293 293 294 294 294 294 292 291 288 287 286 285 285 284 282
243 244 251 250 246 247 251 256 261 263 264 265 267 269 271 270 271 274 272 267 262 260 261 264 266 269 271 274 275 273 270 267 264 263 263 264 264 263 262 260 259 259 259 259 261 262 262 261 260 260 259 260 260 262 265 267 270 273 275 277 279 280 281 283 284 286 289 291 292 292 292 292 292 293 293 293 292 291 289 287 285 285 286 286 285
239 242 242 237 236 243 249 253 255 256 258 261 264 267 269 272 278 282 276 268 266 266 268 269 270 271 272 277 279 281 281 274 269 266 265 265 267 263 259 259 261 263 263 263 264 265 265 264 263 262 260 260 260 261 263 265 268 271 273 276 278 279 281 282 284 287 289 291 292 292 292 292 292 292 292 292 292 291 289 287 285 285 285 286 286
237 237 232 231 235 241 244 245 248 252 257 261 265 267 269 277 282 281 274 268 268 268 268 268 268 270 274 278 283 290 289 280 271 265 264 267 268 262 257 258 261 265 267 267 267 266 264 264 264 262 260 259 261 262 265 267 268 270 272 275 277 279 280 282 284 287 290 292 292 293 293 293 293 293 293 292 292 291 290 287 285 285 285 285 286
233 230 229 233 237 238 239 240 243 249 255 259 262 264 263 267 270 272 272 270 269 267 266 269 273 277 279 280 286 293 290 280 269 263 264 266 263 255 254 261 265 266 266 267 269 268 264 262 261 262 260 260 262 265 267 268 269 270 272 275 276 278 280 282 285 288 291 293 295 296 295 295 296 296 295 294 294 294 292 289 287 287 287 287 286
228 227 231 237 238 237 239 240 243 247 252 256 259 259 257 259 261 263 267 270 271 271 274 280 285 286 281 282 290 292 290 280 267 263 267 268 260 253 256 264 264 258 257 262 268 267 264 263 261 262 262 261 263 264 266 267 269 270 272 274 276 278 281 284 287 289 292 294 296 297 296 296 296 297 296 296 296 296 295 293 292 291 291 292 292
225 227 233 238 237 237 239 241 244 246 250 256 257 257 257 259 258 257 261 267 272 276 281 287 289 288 285 287 292 295 295 282 263 264 269 269 266 265 265 262 254 245 251 262 264 258 260 267 267 265 265 265 266 266 268 270 270 271 272 273 276 279 283 286 287 288 289 292 294 296 296 295 296 297 298 298 298 297 297 297 296 296 296 298 300
226 230 234 236 236 238 239 238 240 241 246 251 255 256 256 256 255 254 259 263 267 271 276 281 284 289 292 294 296 301 304 285 261 270 276 271 266 269 266 246 246 249 256 267 268 265 269 271 270 267 266 269 271 273 275 274 272 270 270 273 277 282 285 286 287 288 290 293 296 297 295 294 295 296 297 299 301 301 302 302 301 300 300 303 305
230 233 236 235 234 235 236 235 235 236 240 246 252 256 256 256 257 256 259 262 263 266 268 272 280 287 294 300 301 305 313 299 269 275 285 277 255 259 265 241 252 261 262 268 276 283 284 280 274 271 274 278 278 279 280 279 278 276 276 279 284 287 288 289 291 293 296 298 300 298 294 292 292 292 295 300 302 303 303 304 304 303 303 305 307
233 236 237 237 236 235 235 236 237 238 240 245 250 253 255 256 259 259 259 261 261 263 264 265 274 283 289 298 300 303 315 314 283 268 281 295 283 283 300 295 289 283 273 272 282 292 294 290 285 284 289 290 286 285 286 286 286 285 286 288 291 293 294 295 298 300 301 300 299 295 290 288 288 290 293 297 298 299 300 301 302 302 303 305 306
234 237 239 239 239 238 239 240 243 244 245 246 248 251 252 253 256 258 258 259 260 261 262 260 265 273 279 289 292 298 310 308 286 272 280 300 298 300 311 308 316 320 304 294 297 304 309 306 302 302 304 300 297 298 300 300 298 296 296 296 296 299 300 302 304 303 301 299 295 292 288 286 287 290 293 295 295 296 296 297 297 298 300 302 303
237 238 240 240 240 242 245 247 249 249 249 249 249 251 252 252 253 255 257 257 259 260 260 260 258 261 267 274 282 293 301 296 291 290 291 297 290 286 288 291 308 319 306 303 306 310 315 315 311 312 312 305 301 302 303 303 301 300 300 301 301 302 303 304 303 301 299 297 295 294 292 291 292 293 294 294 294 294 294 295 295 296 297 298 299
239 240 240 241 242 246 250 254 256 256 256 254 253 253 254 255 255 255 255 254 256 258 259 260 257 258 261 264 274 284 285 285 290 292 288 285 280 273 268 272 289 297 295 300 306 308 312 315 311 308 306 302 298 296 296 296 298 299 300 301 302 301 302 301 300 300 299 298 297 296 296 295 295 294 293 293 292 292 293 293 294 294 294 294 295
239 239 240 242 246 250 253 256 258 259 259 257 256 255 255 256 255 254 254 254 255 257 259 259 255 251 253 255 263 272 274 276 282 284 283 280 274 270 267 269 276 282 290 299 302 301 303 307 307 305 306 304 302 300 300 301 303 304 303 301 300 299 300 300 300 300 299 299 298 297 296 294 293 292 291 291 291 291 292 292 293 293 293 293 293
238 240 244 247 251 254 255 256 257 258 258 257 255 254 254 254 253 252 251 252 254 255 257 257 254 250 250 253 257 263 270 273 273 274 277 277 272 271 275 279 279 281 288 291 293 295 297 301 304 304 304 304 303 301 300 300 302 302 301 299 298 299 300 301 301 300 300 299 298 297 296 294 293 292 291 291 290 291 292 293 294 295 295 296 297
242 245 249 253 255 257 257 258 259 259 257 255 253 253 252 251 250 249 249 249 251 253 255 255 255 253 252 256 256 256 262 267 268 268 273 277 277 278 280 283 284 284 283 281 282 284 290 298 303 304 303 302 302 301 301 301 301 300 299 298 297 298 301 303 303 302 301 299 298 297 296 295 295 294 292 291 291 291 292 294 296 298 299 301 302
248 251 254 256 258 259 261 263 262 261 257 254 254 253 251 249 248 248 249 249 251 253 256 259 259 258 258 261 259 255 254 256 263 269 273 275 275 276 276 277 279 278 279 281 281 283 289 296 300 302 301 301 301 302 303 302 302 301 300 298 298 300 303 305 306 305 304 303 302 300 299 298 297 295 295 294 294 295 297 299 301 303 305 306 307
251 253 255 256 258 261 263 264 264 261 257 255 254 254 252 251 250 250 250 252 254 257 259 262 264 263 263 264 264 263 261 258 262 266 268 270 272 275 276 276 277 278 280 283 284 286 289 293 295 296 296 297 298 299 300 300 299 300 300 301 301 303 304 306 306 306 306 306 306 305 305 303 302 300 298 297 297 298 299 302 304 306 308 310 311
251 252 253 254 257 260 260 262 262 259 255 253 253 253 253 254 256 257 257 257 259 260 261 263 265 266 266 266 265 263 261 261 263 264 267 269 270 271 274 276 277 279 280 280 282 283 284 285 286 288 289 290 291 293 294 295 295 296 298 300 302 303 304 305 305 305 306 307 308 308 308 307 307 305 303 302 302 302 304 306 309 312 313 315 316
249 251 252 254 255 255 255 257 260 257 252 250 251 253 256 259 263 265 266 266 265 265 263 262 263 266 268 269 267 261 256 258 263 266 266 267 269 270 274 279 281 282 281 281 281 282 281 280 280 281 282 282 284 288 293 294 293 293 294 297 299 301 302 303 303 304 305 306 308 308 308 307 307 306 306 308 309 311 313 315 317 319 320 320 321
248 249 251 254 252 250 251 254 258 256 251 249 251 254 259 263 267 270 272 272 271 268 266 263 262 265 266 266 266 265 263 262 264 267 264 264 274 279 280 282 283 283 283 283 284 284 284 283 283 284 284 284 285 290 296 299 297 295 295 297 299 301 302 302 303 304 305 306 306 306 305 304 304 305 307 308 311 313 315 316 317 318 319 319 319
246 248 250 251 248 248 250 253 256 256 252 250 251 255 260 264 268 271 273 273 270 267 265 264 263 263 262 260 260 264 268 266 265 267 263 263 274 279 279 280 281 281 283 285 285 286 287 288 289 290 289 290 291 294 299 300 299 298 297 299 301 302 303 303 304 305 305 304 303 302 301 302 302 304 305 306 308 309 310 311 311 311 311 311 311
244 246 249 248 246 248 250 250 252 254 252 250 251 255 259 263 267 271 273 272 269 265 263 262 260 259 259 259 259 261 267 267 266 268 265 265 272 276 278 280 280 281 283 284 285 286 288 290 291 291 290 291 293 295 296 296 296 297 298 300 303 304 304 303 303 303 301 300 299 299 299 299 300 301 302 302 302 302 303 303 303 303 302 301 301
245 246 246 246 246 246 246 246 249 252 250 249 251 255 256 258 263 270 274 273 269 264 261 259 259 259 259 260 260 261 263 265 267 270 270 272 275 276 277 279 281 282 283 284 285 286 288 290 290 290 289 290 292 294 295 296 297 299 301 305 306 306 306 304 303 301 300 298 297 296 296 297 297 297 297 296 296 297 297 298 298 297 297 296 296
247 246 243 242 244 243 241 243 247 248 247 248 251 255 256 256 259 266 274 275 270 265 261 260 261 263 263 260 259 261 263 265 269 272 274 276 276 276 278 282 285 287 287 287 286 287 288 287 286 286 286 289 291 294 296 299 301 302 305 307 307 307 306 304 302 299 297 296 295 294 293 293 292 292 293 294 295 296 297 298 299 300 300 300 299
248 245 242 241 241 239 238 241 246 246 245 247 250 254 255 255 257 263 272 275 271 265 260 259 260 262 264 263 263 265 268 271 274 276 276 277 275 277 283 289 291 291 289 288 286 286 284 282 282 283 284 288 291 294 297 299 299 301 302 303 303 302 300 298 296 295 294 293 292 291 289 288 288 289 292 294 296 298 300 302 304 305 305 304 303
244 244 243 240 236 233 234 240 244 244 243 244 247 250 253 254 255 260 269 274 272 266 260 257 257 258 260 263 266 271 275 278 279 280 280 280 277 278 283 288 289 289 288 289 288 286 284 283 283 284 286 290 292 295 296 296 296 296 295 295 294 292 289 288 288 289 289 289 288 287 286 286 289 291 294 296 298 300 301 302 303 303 302 301 300
238 242 241 234 229 228 232 238 242 242 242 242 244 248 251 253 253 256 263 269 271 268 263 260 259 261 263 269 276 283 286 285 284 284 284 285 284 282 282 284 286 287 289 291 290 288 287 287 287 288 290 292 294 296 296 294 292 291 290 288 286 283 281 280 281 282 282 283 282 282 284 286 290 292 294 295 295 296 296 296 296 296 296 295 294
235 240 240 232 226 227 232 237 240 242 241 241 243 246 251 254 254 254 258 265 270 270 268 268 269 272 275 280 287 291 291 290 288 287 286 285 283 282 281 282 284 288 290 292 292 291 292 292 292 292 293 295 297 296 295 292 289 287 285 284 282 280 278 279 280 280 281 282 283 284 287 289 290 290 290 290 290 291 291 291 292 292 292 291 290
239 245 246 243 237 234 235 239 241 242 242 241 243 245 250 255 256 256 257 261 267 270 271 272 275 278 280 281 284 284 285 285 284 284 283 281 279 277 277 278 282 287 290 291 292 293 295 295 294 294 295 297 297 295 294 291 288 284 282 281 279 278 279 280 281 282 282 284 286 289 290 291 290 289 289 289 289 289 290 290 291 292 292 291 291
244 249 251 249 247 243 241 241 242 243 243 242 243 246 250 254 257 258 258 260 263 267 271 273 274 276 278 279 280 279 278 277 277 277 278 276 274 272 273 275 279 283 286 288 289 291 292 292 291 292 293 293 293 291 289 286 282 280 278 278 278 278 279 280 280 281 282 283 284 285 286 286 286 286 286 286 286 287 288 290 291 292 292 292 291
240 246 249 248 246 243 241 240 241 242 243 243 245 247 250 252 255 258 259 259 261 263 267 270 272 274 276 278 279 278 275 274 274 274 274 275 274 272 271 272 274 277 279 281 283 284 285 286 286 287 287 287 287 284 282 280 278 277 277 278 280 279 279 279 278 278 277 278 278 278 279 280 280 280 280 280 281 282 285 287 289 290 291 292 292
236 243 246 245 242 239 237 237 237 240 243 245 248 250 251 253 253 255 257 258 259 260 262 265 268 271 274 276 278 277 275 274 273 273 273 273 272 270 270 269 270 272 275 277 278 279 280 281 282 283 283 282 281 279 279 278 278 279 280 281 281 280 279 277 276 275 274 274 275 276 276 276 276 277 277 277 280 283 287 289 291 292 292 293 293
237 241 242 241 238 233 231 233 236 240 245 248 250 251 253 255 255 255 257 258 259 259 260 261 264 267 271 274 276 276 275 274 273 272 271 270 270 269 268 268 269 271 274 275 276 276 278 279 279 279 278 277 277 278 279 280 281 282 282 282 281 279 277 275 273 273 272 273 275 276 277 278 279 280 281 284 287 290 293 294 294 294 294 294 294
238 240 240 240 237 234 236 240 244 248 251 252 252 251 251 253 254 255 256 258 259 259 260 261 263 266 269 271 272 271 271 270 270 270 270 269 269 269 268 268 270 272 274 274 274 275 276 277 276 276 275 276 277 279 280 281 281 282 282 281 280 278 276 274 272 271 271 273 275 276 278 279 280 282 284 286 288 291 294 297 296 295 293 293 293
240 241 241 242 241 242 244 248 251 255 256 255 254 252 251 251 251 252 253 254 256 257 258 260 263 265 267 267 267 267 266 267 267 267 268 268 269 269 268 268 269 271 272 273 273 274 275 275 275 275 276 277 278 278 279 280 280 280 279 279 278 278 276 274 271 270 270 272 275 276 277 277 277 279 281 283 286 289 293 299 299 296 293 292 291
240 240 242 245 248 250 250 251 254 257 258 257 255 253 252 251 250 250 251 252 253 254 255 259 262 264 264 263 262 262 263 263 263 264 265 266 267 267 266 267 268 269 270 270 271 272 273 275 276 277 277 278 278 279 279 279 279 278 278 277 277 276 275 272 271 270 271 272 274 275 276 276 276 277 279 282 286 288 291 296 299 297 295 294 292
240 241 243 246 250 253 254 254 255 257 257 256 255 253 251 251 250 250 250 249 250 251 255 258 260 260 259 258 257 258 259 260 260 261 262 263 264 265 265 265 265 265 265 266 267 270 272 274 276 277 278 279 279 280 280 279 278 277 277 278 277 276 273 272 272 273 274 274 273 273 275 277 278 278 279 282 285 286 289 294 296 295 295 297 297
241 241 241 245 252 257 259 256 252 252 254 253 253 254 252 251 250 249 249 249 250 253 257 260 261 261 261 261 260 260 260 259 259 259 259 260 261 262 263 262 261 261 262 263 266 268 271 273 276 277 279 279 280 280 279 278 277 277 278 279 278 277 275 273 273 273 275 276 274 273 274 276 278 278 278 281 284 285 289 294 294 292 292 296 298
244 245 247 251 254 256 259 257 249 246 249 251 253 256 257 256 253 250 249 250 253 257 261 264 265 267 268 268 268 266 264 262 259 258 257 257 258 259 259 260 260 261 262 264 267 269 272 274 275 276 277 277 277 277 277 276 276 276 277 278 278 278 276 275 274 273 274 275 275 275 275 275 276 276 278 281 284 285 288 293 293 290 290 292 295
250 252 253 253 250 248 255 257 251 247 249 251 254 259 263 262 258 254 251 252 255 259 263 267 269 270 271 271 271 270 268 265 262 260 258 257 257 258 259 260 262 263 265 267 268 270 272 273 273 274 274 274 275 275 274 275 275 276 277 278 278 278 277 276 276 276 275 274 275 276 277 276 276 276 278 282 284 284 285 288 290 290 289 289 291
252 253 251 249 245 245 250 254 253 253 252 251 253 260 266 267 263 258 256 256 257 259 263 266 269 271 272 272 272 271 269 267 264 262 261 260 259 260 261 262 263 265 266 267 268 270 270 270 270 270 271 271 272 272 272 273 274 275 276 276 276 277 277 277 277 277 276 275 275 277 278 277 277 279 280 283 284 282 281 283 287 289 288 287 289
251 250 247 245 244 245 249 252 254 254 253 251 253 259 265 268 267 265 262 261 261 262 265 268 270 272 273 272 272 271 269 268 266 265 263 262 262 261 261 262 263 264 265 266 268 269 269 269 268 268 269 270 270 271 271 272 272 273 274 274 275 275 275 275 274 275 275 275 276 277 278 277 278 281 284 284 283 280 277 279 286 289 287 286 288
249 247 246 245 245 247 252 256 256 253 251 251 254 259 263 265 267 266 264 264 264 266 269 271 273 274 274 273 272 270 269 268 268 267 265 265 264 264 264 264 265 266 267 268 270 270 270 270 270 270 271 271 272 272 273 273 273 273 274 274 275 275 275 275 274 273 274 275 275 277 278 277 278 281 284 284 283 279 276 278 285 289 287 285 287
246 245 245 245 246 249 255 258 258 254 250 250 254 259 264 266 267 266 265 263 264 266 268 271 272 273 273 273 271 270 270 269 269 268 267 267 266 266 266 266 267 268 268 269 270 270 270 270 270 270 271 271 271 271 272 272 272 272 273 273 274 275 276 276 276 275 275 275 276 277 277 278 279 281 282 282 282 281 280 282 285 287 286 284 285
246 246 247 248 250 254 258 260 260 258 256 255 257 261 265 267 267 267 266 265 265 266 268 270 271 272 273 272 271 270 270 271 270 269 269 269 268 268 268 268 268 269 269 269 270 270 271 271 271 272 271 271 272 272 272 272 273 273 273 273 273 274 275 275 276 277 277 277 277 277 277 278 279 280 280 280 280 280 282 285 286 286 285 283 284
246 247 249 251 254 258 260 261 261 261 260 260 261 263 265 266 266 266 266 267 267 268 269 271 272 273 273 273 272 272 272 272 272 272 272 272 271 270 269 269 269 269 270 270 271 272 273 273 274 274 274 274 273 274 273 273 274 274 274 275 275 275 275 275 276 277 277 277 277 277 278 279 279 279 279 280 280 280 281 283 284 284 283 282 283
Height
5824 5824 5823 5823 5822 5822 5822 5823 5824 5824 5825 5825 5825 5826 5826 5826 5827 5827 5827 5827 5826 5826 5826 5826 5826 5827 5827 5826 5826 5826 5826 5826 5826 5826 5826 5827 5828 5829 5829 5829 5830 5830 5830 5831 5831 5832 5833 5833 5834 5834 5834 5835 5835 5835 5836 5836 5836 5836 5837 5837 5837 5837 5837 5836 5836 5836 5836 5836 5836 5836 5837 5837 5837 5837 5837 5837 5836 5836 5836 5836 5836 5836 5836 5836 5836
5822 5822 5822 5821 5821 5821 5821 5822 5822 5823 5824 5824 5825 5825 5825 5825 5826 5826 5826 5826 5825 5825 5825 5825 5825 5825 5825 5825 5825 5825 5824 5824 5824 5823 5824 5825 5825 5826 5827 5827 5828 5828 5829 5829 5830 5830 5831 5832 5832 5832 5833 5833 5834 5834 5834 5835 5835 5835 5835 5835 5835 5835 5835 5835 5835 5834 5834 5834 5834 5834 5835 5835 5835 5836 5836 5835 5835 5835 5835 5835 5835 5834 5834 5834 5834
5820 5820 5820 5820 5820 5820 5820 5821 5821 5822 5822 5823 5823 5824 5824 5824 5825 5825 5825 5825 5825 5824 5824 5824 5824 5824 5824 5824 5824 5823 5822 5821 5822 5822 5822 5823 5823 5823 5825 5825 5826 5826 5827 5827 5828 5829 5829 5830 5831 5831 5832 5832 5832 5833 5833 5833 5833 5834 5834 5834 5834 5833 5833 5833 5833 5833 5833 5833 5833 5833 5833 5833 5833 5834 5834 5834 5834 5833 5833 5833 5833 5833 5833 5833 5832
5820 5819 5819 5819 5819 5819 5819 5820 5820 5820 5821 5821 5821 5822 5823 5823 5824 5824 5824 5824 5824 5824 5823 5823 5823 5823 5823 5823 5822 5821 5820 5820 5820 5821 5821 5822 5822 5822 5823 5823 5824 5824 5825 5825 5826 5827 5828 5829 5829 5830 5830 5831 5831 5832 5832 5832 5832 5832 5833 5832 5832 5832 5832 5832 5832 5831 5831 5831 5831 5831 5831 5831 5831 5831 5831 5832 5832 5832 5831 5831 5831 5831 5831 5831 5831
5819 5818 5818 5818 5818 5818 5818 5819 5819 5820 5820 5820 5820 5821 5821 5822 5823 5823 5824 5824 5823 5823 5822 5822 5822 5822 5821 5821 5821 5820 5819 5819 5819 5819 5819 5820 5821 5821 5821 5821 5822 5822 5823 5824 5825 5825 5826 5827 5828 5828 5829 5830 5830 5830 5831 5831 5831 5831 5831 5831 5831 5831 5831 5830 5830 5830 5830 5830 5829 5829 5829 5829 5829 5829 5829 5829 5829 5829 5829 5829 5829 5829 5829 5829 5829
5818 5817 5817 5817 5817 5817 5818 5818 5818 5819 5819 5819 5819 5820 5820 5821 5822 5822 5823 5822 5822 5822 5821 5821 5821 5821 5820 5820 5819 5819 5819 5818 5818 5818 5818 5819 5819 5820 5819 5820 5821 5821 5822 5823 5823 5824 5825 5826 5826 5827 5827 5828 5828 5829 5829 5829 5830 5830 5830 5830 5830 5830 5829 5829 5829 5829 5829 5829 5828 5828 5828 5827 5827 5827 5827 5827 5827 5827 5827 5827 5826 5826 5826 5826 5826
5817 5817 5816 5816 5817 5817 5817 5817 5818 5818 5818 5818 5818 5819 5820 5820 5821 5822 5822 5821 5821 5821 5820 5820 5820 5820 5819 5819 5818 5818 5818 5817 5817 5817 5817 5817 5818 5818 5818 5819 5820 5820 5820 5821 5822 5823 5824 5824 5825 5825 5826 5826 5827 5827 5827 5828 5828 5828 5828 5828 5828 5828 5828 5828 5828 5828 5828 5828 5827 5827 5827 5826 5826 5826 5825 5825 5825 5825 5825 5824 5824 5824 5824 5824 5824
5816 5816 5815 5816 5816 5816 5816 5816 5817 5817 5817 5817 5818 5818 5819 5820 5820 5821 5821 5820 5820 5820 5820 5820 5820 5819 5819 5818 5817 5817 5817 5816 5815 5815 5815 5816 5816 5817 5817 5818 5819 5819 5819 5820 5821 5822 5822 5822 5823 5823 5824 5824 5824 5825 5825 5826 5826 5826 5826 5826 5827 5827 5827 5827 5827 5827 5827 5827 5826 5826 5825 5825 5825 5824 5824 5824 5823 5823 5823 5822 5822 5822 5822 5822 5821
5814 5814 5815 5815 5815 5816 5815 5816 5816 5816 5816 5816 5817 5818 5818 5819 5819 5820 5819 5819 5819 5819 5820 5820 5819 5818 5817 5817 5817 5816 5816 5815 5815 5814 5814 5815 5815 5816 5817 5817 5818 5818 5819 5819 5820 5820 5820 5820 5821 5821 5822 5822 5822 5823 5823 5823 5823 5824 5824 5824 5825 5825 5825 5825 5825 5825 5825 5825 5824 5824 5824 5824 5823 5823 5823 5822 5822 5821 5821 5821 5820 5820 5820 5819 5819
5813 5813 5814 5814 5815 5815 5815 5815 5815 5815 5815 5816 5816 5817 5818 5818 5819 5819 5819 5818 5818 5818 5819 5819 5818 5817 5817 5816 5816 5815 5815 5815 5814 5813 5813 5813 5814 5815 5816 5817 5817 5817 5817 5818 5819 5819 5818 5819 5819 5820 5820 5820 5821 5821 5821 5821 5821 5822 5822 5822 5823 5823 5823 5823 5823 5823 5823 5823 5823 5823 5822 5822 5822 5822 5821 5821 5820 5820 5820 5819 5819 5819 5818 5817 5817
5811 5812 5812 5813 5814 5814 5814 5814 5814 5814 5815 5815 5816 5816 5817 5818 5818 5818 5818 5817 5817 5817 5818 5819 5818 5817 5816 5816 5815 5814 5814 5814 5813 5813 5813 5813 5814 5814 5815 5816 5816 5817 5816 5816 5817 5818 5818 5818 5818 5818 5818 5818 5819 5819 5819 5819 5820 5820 5821 5821 5821 5821 5822 5821 5822 5822 5822 5821 5821 5821 5821 5821 5821 5820 5820 5820 5819 5819 5818 5818 5818 5817 5817 5816 5815
5810 5810 5811 5812 5812 5813 5813 5813 5813 5814 5814 5815 5815 5816 5816 5817 5817 5817 5817 5816 5816 5816 5817 5818 5817 5817 5816 5816 5815 5814 5813 5813 5813 5812 5812 5812 5813 5814 5815 5815 5815 5816 5816 5815 5816 5816 5817 5817 5818 5817 5817 5817 5818 5818 5818 5818 5819 5819 5820 5820 5820 5820 5820 5820 5820 5820 5820 5820 5819 5819 5819 5819 5819 5819 5819 5818 5818 5817 5817 5817 5817 5816 5815 5815 5814
5808 5809 5810 5811 5812 5812 5812 5813 5813 5813 5813 5814 5814 5814 5815 5816 5816 5816 5816 5815 5815 5815 5816 5817 5817 5816 5816 5815 5814 5814 5813 5813 5812 5812 5812 5812 5813 5814 5814 5815 5815 5815 5816 5816 5816 5816 5816 5817 5817 5817 5817 5817 5817 5817 5818 5818 5818 5818 5819 5819 5819 5819 5819 5819 5819 5819 5818 5818 5818 5818 5817 5817 5817 5817 5817 5817 5817 5816 5816 5816 5816 5815 5814 5814 5814
5807 5808 5809 5810 5811 5811 5811 5812 5812 5812 5812 5812 5812 5813 5814 5814 5815 5815 5815 5815 5814 5814 5815 5816 5816 5816 5815 5815 5814 5814 5813 5813 5812 5812 5812 5812 5813 5813 5814 5814 5815 5816 5815 5816 5816 5816 5816 5816 5816 5816 5816 5817 5817 5817 5817 5817 5817 5818 5818 5818 5818 5818 5818 5818 5818 5818 5817 5817 5817 5817 5816 5816 5816 5816 5816 5815 5815 5815 5815 5815 5814 5814 5813 5813 5813
5806 5806 5807 5809 5810 5810 5810 5811 5811 5811 5811 5811 5812 5812 5812 5813 5813 5814 5814 5814 5814 5813 5814 5815 5815 5815 5815 5814 5813 5813 5813 5813 5812 5812 5812 5812 5812 5813 5813 5813 5814 5815 5815 5815 5815 5815 5815 5815 5815 5815 5816 5816 5816 5816 5816 5816 5816 5816 5817 5817 5817 5817 5816 5816 5817 5816 5816 5816 5816 5816 5816 5815 5815 5815 5814 5814 5814 5814 5813 5813 5813 5812 5812 5812 5811
5805 5805 5806 5807 5809 5809 5810 5810 5810 5810 5810 5810 5811 5811 5811 5812 5812 5812 5813 5813 5813 5813 5813 5813 5814 5814 5814 5813 5813 5813 5813 5813 5812 5812 5812 5812 5812 5812 5813 5813 5813 5814 5814 5814 5814 5814 5814 5814 5814 5815 5815 5815 5815 5815 5815 5815 5815 5815 5815 5815 5815 5815 5815 5815 5815 5815 5815 5815 5815 5815 5814 5814 5814 5813 5813 5812 5812 5812 5812 5811 5811 5811 5810 5810 5809
5804 5804 5805 5806 5807 5808 5809 5809 5809 5809 5809 5809 5809 5810 5810 5810 5811 5811 5812 5812 5812 5812 5812 5812 5813 5813 5813 5813 5813 5812 5813 5812 5812 5812 5812 5812 5811 5811 5812 5812 5812 5813 5813 5813 5813 5813 5814 5814 5813 5814 5814 5814 5814 5814 5814 5814 5815 5815 5815 5815 5815 5815 5815 5814 5814 5814 5814 5813 5813 5813 5813 5812 5812 5811 5811 5810 5810 5810 5809 5809 5809 5808 5808 5808 5807
5803 5803 5804 5805 5806 5807 5807 5808 5808 5808 5808 5808 5808 5808 5809 5809 5810 5810 5811 5811 5811 5810 5811 5811 5812 5812 5812 5812 5812 5812 5812 5812 5812 5812 5812 5812 5811 5811 5811 5811 5812 5812 5812 5812 5813 5813 5813 5813 5813 5813 5813 5813 5814 5814 5814 5814 5814 5814 5814 5814 5814 5813 5813 5813 5813 5812 5812 5812 5811 5811 5811 5810 5810 5809 5809 5808 5808 5807 5807 5807 5806 5806 5806 5805 5805
5802 5802 5803 5804 5805 5806 5806 5807 5807 5807 5807 5807 5807 5807 5808 5808 5809 5809 5809 5810 5810 5810 5810 5810 5811 5811 5812 5811 5811 5811 5811 5812 5812 5811 5811 5811 5811 5811 5810 5810 5811 5811 5811 5811 5812 5812 5812 5812 5812 5812 5812 5812 5813 5813 5813 5813 5812 5812 5812 5812 5812 5812 5811 5811 5811 5810 5810 5810 5809 5809 5808 5808 5808 5807 5807 5806 5806 5805 5805 5805 5804 5804 5803 5803 5803
5801 5801 5802 5803 5804 5804 5805 5806 5806 5806 5806 5806 5806 5806 5807 5807 5807 5808 5808 5808 5808 5809 5809 5809 5810 5810 5811 5811 5811 5811 5811 5811 5811 5811 5810 5810 5810 5810 5810 5810 5810 5810 5810 5810 5811 5811 5811 5811 5811 5811 5811 5811 5811 5811 5811 5811 5811 5811 5810 5810 5810 5810 5810 5810 5809 5809 5808 5808 5808 5807 5807 5806 5806 5805 5805 5805 5804 5804 5803 5803 5802 5802 5801 5801 5801
5799 5800 5801 5802 5802 5803 5804 5804 5805 5805 5805 5805 5805 5805 5805 5806 5806 5806 5807 5807 5807 5808 5808 5808 5808 5809 5810 5810 5810 5811 5812 5811 5811 5810 5810 5809 5809 5809 5809 5809 5809 5809 5809 5809 5810 5810 5810 5810 5810 5810 5810 5810 5810 5810 5809 5809 5809 5809 5808 5808 5808 5808 5808 5808 5808 5807 5807 5806 5806 5805 5805 5805 5804 5804 5804 5803 5803 5802 5802 5801 5801 5800 5800 5799 5799
5798 5799 5800 5800 5801 5802 5802 5803 5804 5804 5804 5804 5804 5804 5804 5804 5805 5805 5806 5806 5806 5807 5807 5807 5807 5808 5809 5809 5810 5810 5810 5811 5810 5810 5810 5809 5809 5808 5808 5808 5808 5808 5808 5808 5809 5809 5809 5809 5809 5809 5809 5809 5809 5808 5808 5808 5807 5807 5807 5807 5806 5806 5806 5806 5806 5805 5805 5805 5804 5804 5803 5803 5803 5803 5802 5802 5801 5801 5800 5800 5800 5799 5799 5798 5798
5796 5797 5798 5799 5800 5800 5801 5802 5802 5803 5803 5803 5803 5802 5803 5803 5803 5804 5804 5805 5805 5805 5806 5806 5806 5807 5808 5809 5809 5809 5809 5809 5809 5808 5808 5808 5808 5808 5807 5807 5807 5807 5807 5807 5808 5808 5808 5808 5808 5808 5808 5807 5807 5807 5807 5806 5806 5806 5805 5805 5805 5805 5805 5804 5804 5804 5803 5803 5802 5802 5802 5801 5801 5801 5801 5800 5800 5800 5799 5799 5798 5798 5797 5797 5796
5794 5795 5796 5797 5798 5799 5799 5800 5801 5801 5801 5801 5801 5801 5801 5802 5802 5802 5803 5803 5804 5804 5804 5805 5805 5806 5807 5807 5807 5807 5808 5808 5807 5808 5808 5806 5806 5806 5806 5806 5806 5806 5806 5806 5806 5806 5806 5806 5806 5806 5806 5806 5806 5806 5805 5805 5805 5804 5804 5804 5804 5803 5803 5803 5802 5802 5801 5801 5801 5800 5800 5800 5800 5799 5799 5799 5798 5798 5797 5797 5796 5796 5795 5795 5794
5792 5793 5794 5795 5796 5797 5797 5798 5799 5799 5800 5800 5800 5800 5800 5800 5801 5801 5801 5801 5802 5802 5802 5803 5804 5805 5805 5806 5804 5804 5806 5806 5806 5807 5807 5805 5804 5804 5805 5805 5805 5805 5804 5804 5804 5804 5805 5805 5805 5805 5805 5805 5805 5804 5804 5804 5803 5803 5803 5802 5802 5802 5801 5801 5800 5800 5800 5799 5799 5799 5798 5798 5798 5798 5797 5797 5796 5796 5795 5795 5794 5794 5793 5793 5792
5790 5791 5792 5793 5794 5795 5795 5796 5796 5797 5798 5798 5798 5799 5799 5799 5799 5799 5799 5800 5800 5800 5800 5801 5802 5803 5804 5804 5804 5803 5804 5805 5805 5806 5806 5804 5803 5803 5803 5803 5803 5803 5803 5803 5803 5803 5803 5803 5803 5803 5803 5803 5803 5803 5803 5802 5802 5801 5801 5800 5800 5800 5799 5799 5799 5798 5798 5798 5797 5797 5797 5797 5796 5796 5796 5795 5795 5794 5794 5793 5793 5792 5792 5791 5791
5787 5788 5789 5791 5792 5793 5793 5794 5794 5795 5796 5796 5797 5797 5798 5798 5798 5798 5798 5798 5798 5799 5799 5800 5801 5802 5802 5803 5803 5802 5803 5804 5804 5805 5804 5804 5803 5803 5803 5802 5802 5802 5802 5802 5802 5802 5802 5802 5802 5802 5802 5802 5801 5802 5801 5801 5800 5800 5799 5799 5799 5798 5798 5797 5797 5797 5796 5796 5796 5796 5796 5795 5795 5795 5794 5794 5793 5793 5792 5792 5791 5791 5790 5790 5789
5784 5786 5787 5788 5790 5791 5791 5792 5793 5793 5794 5795 5795 5795 5796 5796 5796 5797 5797 5797 5797 5797 5798 5798 5799 5800 5801 5801 5801 5801 5802 5802 5803 5803 5803 5803 5803 5802 5801 5801 5801 5801 5801 5801 5801 5801 5801 5801 5800 5800 5800 5800 5800 5800 5800 5799 5798 5798 5797 5797 5797 5797 5796 5796 5796 5795 5795 5795 5795 5794 5794 5794 5793 5793 5792 5792 5791 5791 5790 5790 5789 5789 5788 5788 5788
5782 5784 5785 5787 5788 5789 5789 5790 5791 5792 5793 5793 5793 5794 5794 5795 5795 5795 5795 5795 5795 5796 5797 5797 5798 5798 5799 5800 5800 5800 5801 5801 5801 5802 5802 5802 5802 5800 5800 5800 5800 5800 5800 5800 5800 5800 5799 5799 5799 5799 5798 5799 5799 5798 5798 5797 5797 5796 5796 5796 5796 5795 5795 5795 5794 5794 5794 5793 5793 5793 5792 5792 5791 5791 5790 5790 5789 5789 5788 5788 5787 5787 5786 5786 5785
5780 5781 5783 5785 5786 5786 5787 5788 5789 5790 5791 5791 5792 5792 5793 5793 5794 5794 5794 5794 5794 5795 5795 5796 5796 5796 5797 5797 5798 5798 5799 5799 5800 5800 5800 5801 5800 5798 5798 5798 5798 5798 5798 5798 5798 5798 5798 5797 5797 5797 5797 5797 5797 5797 5796 5796 5795 5795 5794 5794 5794 5794 5793 5793 5793 5792 5792 5792 5791 5791 5790 5790 5789 5789 5788 5788 5787 5787 5786 5786 5785 5784 5784 5783 5783
5777 5779 5781 5782 5783 5784 5785 5786 5787 5788 5789 5790 5790 5790 5791 5792 5792 5793 5793 5793 5793 5793 5794 5794 5795 5795 5795 5796 5796 5797 5797 5797 5798 5798 5798 5799 5799 5798 5796 5796 5796 5797 5797 5797 5797 5796 5796 5796 5796 5795 5795 5795 5795 5795 5795 5794 5794 5793 5793 5792 5792 5792 5791 5791 5791 5791 5790 5790 5790 5789 5789 5788 5787 5787 5786 5785 5785 5784 5784 5783 5783 5782 5781 5781 5780
5776 5777 5778 5780 5781 5782 5783 5784 5785 5786 5787 5788 5788 5789 5789 5790 5790 5791 5791 5792 5792 5792 5793 5793 5793 5794 5794 5794 5794 5795 5795 5795 5796 5796 5796 5796 5797 5796 5796 5796 5795 5795 5795 5795 5795 5795 5795 5794 5794 5794 5793 5793 5793 5793 5793 5792 5792 5791 5791 5791 5790 5790 5789 5789 5788 5788 5788 5788 5787 5787 5786 5785 5784 5784 5783 5783 5782 5782 5781 5781 5780 5780 5779 5779 5778
5774 5775 5776 5777 5779 5780 5781 5782 5783 5784 5785 5786 5786 5787 5787 5788 5788 5789 5790 5790 5791 5791 5791 5792 5792 5792 5792 5793 5793 5793 5793 5794 5794 5794 5795 5795 5795 5794 5794 5794 5794 5794 5793 5793 5793 5793 5793 5792 5792 5792 5791 5791 5791 5791 5791 5790 5790 5789 5789 5788 5788 5787 5787 5786 5786 5786 5785 5785 5785 5784 5783 5782 5782 5781 5780 5780 5780 5779 5779 5778 5778 5777 5777 5776 5776
5772 5773 5774 5775 5777 5778 5779 5780 5781 5782 5783 5784 5784 5785 5785 5786 5787 5787 5788 5789 5789 5790 5790 5790 5791 5791 5791 5791 5792 5792 5792 5792 5793 5793 5793 5793 5793 5793 5792 5792 5792 5792 5792 5792 5791 5791 5791 5790 5790 5790 5789 5789 5789 5789 5788 5788 5787 5787 5787 5786 5786 5785 5784 5784 5783 5783 5783 5782 5782 5781 5780 5780 5779 5778 5778 5777 5777 5776 5776 5776 5775 5775 5774 5774 5773
5770 5771 5772 5773 5774 5775 5776 5777 5778 5779 5780 5781 5782 5783 5783 5784 5784 5785 5786 5786 5787 5788 5788 5789 5789 5790 5790 5790 5790 5791 5790 5791 5791 5791 5791 5791 5791 5790 5790 5790 5790 5790 5790 5790 5790 5789 5789 5789 5788 5788 5788 5787 5787 5787 5786 5786 5785 5785 5785 5784 5784 5783 5782 5781 5781 5780 5780 5779 5779 5778 5778 5777 5776 5776 5775 5775 5774 5774 5773 5773 5772 5772 5772 5771 5770
5769 5769 5770 5771 5772 5773 5774 5775 5776 5777 5778 5779 5780 5780 5781 5781 5782 5783 5783 5784 5785 5785 5786 5787 5787 5788 5788 5788 5789 5789 5789 5789 5789 5789 5789 5788 5788 5788 5788 5788 5788 5788 5788 5788 5787 5787 5787 5787 5786 5786 5786 5786 5785 5785 5784 5784 5783 5783 5782 5782 5781 5781 5780 5779 5778 5778 5777 5776 5776 5775 5775 5774 5774 5773 5772 5772 5771 5771 5770 5770 5769 5769 5768 5768 5767
5767 5768 5768 5769 5769 5770 5771 5772 5773 5774 5775 5776 5777 5778 5778 5779 5779 5780 5781 5782 5782 5783 5784 5784 5785 5785 5786 5786 5787 5787 5787 5786 5786 5786 5786 5786 5786 5786 5786 5786 5785 5785 5785 5785 5785 5785 5785 5785 5784 5784 5784 5783 5783 5782 5782 5781 5781 5781 5780 5780 5779 5778 5778 5777 5776 5775 5774 5774 5773 5773 5772 5771 5771 5770 5770 5769 5769 5768 5767 5767 5766 5765 5764 5764 5763
5765 5766 5766 5766 5767 5768 5769 5770 5771 5772 5773 5773 5774 5775 5776 5776 5777 5777 5778 5779 5779 5780 5781 5781 5782 5782 5783 5783 5783 5784 5784 5784 5784 5784 5784 5784 5783 5783 5783 5783 5783 5783 5783 5783 5783 5783 5782 5782 5782 5781 5781 5781 5780 5780 5779 5779 5779 5778 5778 5777 5777 5776 5775 5775 5774 5773 5772 5772 5771 5770 5770 5769 5768 5767 5767 5766 5766 5765 5764 5763 5762 5761 5760 5759 5758
5763 5764 5764 5764 5765 5766 5767 5768 5769 5769 5770 5770 5771 5772 5773 5773 5774 5774 5775 5775 5776 5776 5777 5777 5778 5779 5779 5780 5780 5780 5781 5781 5781 5781 5781 5781 5780 5780 5780 5780 5780 5780 5780 5780 5780 5780 5780 5780 5779 5779 5779 5779 5778 5777 5777 5776 5776 5775 5775 5774 5774 5773 5772 5772 5771 5770 5769 5769 5768 5767 5767 5766 5765 5764 5763 5763 5762 5762 5761 5760 5759 5757 5756 5755 5754
5761 5762 5762 5762 5763 5764 5765 5765 5766 5767 5767 5768 5768 5768 5769 5770 5770 5771 5771 5772 5772 5773 5773 5774 5774 5775 5775 5776 5776 5777 5777 5778 5778 5778 5778 5778 5777 5777 5777 5777 5778 5778 5778 5778 5778 5777 5777 5777 5777 5777 5777 5776 5776 5775 5774 5774 5773 5772 5772 5771 5770 5770 5769 5768 5767 5767 5766 5766 5765 5764 5763 5763 5762 5761 5760 5760 5759 5758 5757 5756 5755 5754 5752 5751 5750
5758 5759 5759 5760 5761 5761 5762 5763 5764 5764 5765 5765 5765 5765 5766 5767 5767 5768 5768 5768 5769 5769 5770 5770 5771 5771 5772 5773 5773 5773 5773 5774 5774 5774 5774 5774 5774 5774 5774 5774 5774 5774 5774 5775 5775 5775 5775 5774 5774 5774 5774 5773 5772 5772 5771 5770 5769 5769 5768 5768 5767 5766 5765 5764 5764 5763 5762 5762 5761 5761 5760 5759 5758 5757 5757 5756 5755 5754 5753 5752 5751 5749 5748 5747 5745
5756 5757 5757 5757 5758 5759 5759 5760 5761 5762 5762 5762 5763 5763 5763 5764 5764 5765 5765 5765 5766 5766 5766 5767 5767 5768 5768 5769 5770 5770 5770 5770 5771 5770 5770 5770 5770 5770 5770 5770 5771 5771 5771 5771 5771 5771 5771 5771 5770 5769 5769 5769 5768 5768 5767 5766 5766 5765 5765 5764 5763 5762 5762 5761 5760 5760 5759 5757 5757 5757 5756 5754 5753 5753 5752 5752 5751 5750 5749 5748 5746 5745 5744 5742 5741
5753 5754 5755 5755 5755 5756 5756 5757 5758 5759 5759 5759 5760 5760 5760 5761 5761 5762 5762 5762 5763 5763 5763 5763 5764 5764 5765 5765 5766 5766 5767 5767 5767 5767 5766 5766 5766 5766 5766 5766 5767 5767 5767 5767 5767 5767 5767 5766 5766 5765 5765 5764 5764 5763 5762 5762 5762 5761 5761 5760 5759 5758 5758 5757 5756 5756 5755 5753 5752 5752 5752 5750 5748 5748 5748 5747 5746 5745 5744 5743 5742 5741 5739 5738 5737
5750 5751 5752 5752 5753 5753 5753 5753 5754 5755 5756 5756 5757 5757 5757 5758 5758 5758 5759 5759 5760 5760 5760 5760 5761 5761 5761 5762 5762 5763 5763 5763 5763 5763 5762 5762 5762 5762 5762 5762 5763 5763 5763 5763 5763 5763 5762 5762 5761 5761 5760 5760 5759 5758 5758 5757 5757 5757 5756 5755 5754 5753 5753 5752 5751 5751 5751 5749 5747 5746 5746 5746 5744 5742 5742 5742 5742 5740 5739 5738 5737 5736 5735 5734 5733
5747 5747 5748 5749 5749 5750 5750 5750 5751 5752 5753 5754 5754 5754 5755 5755 5755 5756 5756 5756 5756 5757 5757 5758 5758 5758 5758 5759 5759 5759 5759 5759 5759 5759 5758 5758 5758 5758 5758 5759 5759 5759 5759 5759 5759 5758 5758 5757 5757 5757 5756 5755 5755 5754 5754 5753 5753 5752 5752 5751 5750 5749 5748 5748 5746 5746 5746 5745 5742 5741 5740 5740 5740 5737 5736 5737 5736 5735 5734 5733 5732 5731 5730 5729 5728
5743 5744 5744 5745 5746 5746 5747 5747 5748 5749 5750 5751 5751 5752 5752 5752 5753 5753 5753 5753 5754 5754 5754 5755 5755 5755 5755 5755 5755 5755 5756 5755 5755 5755 5755 5755 5755 5755 5755 5755 5755 5755 5755 5755 5755 5754 5754 5753 5753 5752 5752 5751 5751 5750 5750 5749 5749 5748 5747 5746 5745 5744 5743 5743 5742 5741 5740 5740 5738 5736 5734 5734 5735 5733 5731 5731 5731 5729 5728 5728 5726 5725 5724 5723 5722
5740 5740 5741 5742 5742 5743 5744 5744 5745 5746 5747 5748 5748 5749 5749 5749 5750 5750 5750 5751 5751 5751 5751 5752 5752 5752 5752 5752 5752 5752 5752 5751 5751 5751 5751 5751 5751 5751 5751 5751 5751 5751 5751 5751 5750 5750 5749 5749 5748 5748 5747 5747 5746 5745 5744 5744 5744 5743 5742 5741 5740 5739 5738 5738 5737 5736 5735 5734 5733 5731 5729 5728 5729 5727 5725 5725 5725 5723 5722 5723 5721 5720 5719 5718 5716
5737 5738 5738 5739 5740 5740 5741 5742 5742 5743 5744 5744 5745 5745 5746 5746 5747 5747 5747 5748 5748 5748 5748 5748 5748 5748 5748 5748 5748 5748 5747 5747 5747 5747 5747 5747 5746 5746 5746 5746 5746 5746 5746 5746 5745 5744 5743 5743 5742 5742 5742 5741 5741 5740 5739 5738 5738 5737 5736 5735 5734 5733 5732 5732 5731 5730 5730 5729 5727 5726 5723 5722 5724 5722 5719 5719 5719 5717 5716 5717 5717 5715 5712 5711 5710
5734 5735 5735 5736 5737 5737 5738 5739 5739 5739 5740 5741 5741 5742 5742 5742 5743 5744 5744 5744 5744 5744 5744 5744 5744 5744 5744 5743 5743 5743 5743 5743 5743 5743 5742 5742 5742 5741 5741 5741 5740 5740 5740 5740 5739 5738 5737 5737 5736 5736 5736 5735 5734 5734 5733 5732 5732 5731 5730 5729 5728 5727 5725 5724 5724 5723 5723 5723 5721 5719 5717 5716 5718 5716 5713 5712 5712 5711 5708 5708 5710 5709 5706 5704 5703
5731 5731 5732 5732 5733 5734 5735 5735 5735 5736 5737 5737 5738 5738 5738 5739 5739 5739 5740 5740 5740 5740 5740 5740 5739 5739 5739 5739 5739 5738 5739 5739 5739 5738 5738 5737 5737 5736 5736 5735 5735 5734 5734 5734 5733 5732 5731 5731 5731 5730 5729 5729 5728 5727 5727 5726 5725 5724 5723 5722 5722 5720 5718 5717 5716 5714 5715 5716 5715 5712 5709 5709 5710 5709 5706 5704 5704 5703 5702 5700 5700 5701 5699 5697 5696
5727 5728 5728 5729 5730 5730 5731 5732 5732 5733 5733 5733 5734 5734 5734 5734 5735 5735 5735 5735 5735 5735 5735 5734 5734 5734 5734 5734 5734 5734 5734 5734 5734 5733 5732 5732 5732 5731 5731 5730 5729 5729 5728 5727 5727 5726 5725 5724 5724 5723 5722 5722 5721 5720 5720 5719 5718 5716 5715 5714 5713 5712 5711 5710 5709 5707 5706 5708 5708 5705 5702 5702 5701 5700 5699 5697 5695 5695 5696 5694 5692 5691 5691 5690 5688